Ainsworth, NE

9:18 AM CDT on May 26, 2017 (GMT -0500)
Ainsworth Municipal

Weather History for KANW - November, 2011

Change the Weather History Date:

Monday, November 14, 2011

  Actual Average Record
Temperature  
Mean Temperature 42 °F -  
Max Temperature 55 °F 46 °F 70 °F (2015)
Min Temperature 28 °F 25 °F 2 °F (2014)
Degree Days  
Heating Degree Days 24    
Moisture  
Dew Point 22 °F    
Average Humidity 52    
Maximum Humidity 80    
Minimum Humidity 19    
Precipitation  
Precipitation 0.00 in - - ()
Sea Level Pressure  
Sea Level Pressure 29.55 in    
Wind  
Wind Speed 10 mph (WSW)    
Max Wind Speed 18 mph    
Max Gust Speed 25 mph    
Visibility 10 miles    
Events      
Averages and records for this station are not official NWS values.
T = Trace of Precipitation, MM = Missing Value Source: NWS Daily Summary

Daily Weather History Graph

Daily Weather History Graph

Search for Another Location

Airport or City:

Trip Planner

Search our weather history database for the weather conditions in past years. The results will help you decide how hot, cold, wet, or windy it might be!

Date:

Astronomy

Nov. 14, 2011 Rise Set
Actual Time 7:29 AM CST 5:18 PM CST
Civil Twilight 6:59 AM CST 5:48 PM CST
Nautical Twilight 6:25 AM CST 6:22 PM CST
Astronomical Twilight 5:52 AM CST 6:55 PM CST
Moon 8:25 PM CST (11/14) 10:51 AM CST (11/14)
Length of Visible Light 10h 49m
Length of Day
9h 48m
Waning Gibbous, 86% of the Moon is Illuminated
Nov 14
Waning Gibbous
Nov 18
Last Quarter
Nov 25
New
Dec 2
First Quarter
Dec 10
Full

Hourly Weather History & Observations

Time (CST) Temp. Windchill Dew Point Humidity Pressure Visibility Wind Dir Wind Speed Gust Speed Precip Events Conditions
12:15 AM 37.4 °F 28.9 °F 24.8 °F 60% 29.47 in 10.0 mi WSW 13.8 mph - N/A   Scattered Clouds
12:35 AM 35.6 °F 27.1 °F 24.8 °F 65% 29.48 in 10.0 mi WSW 12.7 mph - N/A   Scattered Clouds
12:55 AM 35.6 °F 27.1 °F 24.8 °F 65% 29.47 in 10.0 mi WSW 12.7 mph - N/A   Scattered Clouds
1:15 AM 35.6 °F 27.1 °F 24.8 °F 65% 29.47 in 10.0 mi WSW 12.7 mph - N/A   Clear
1:35 AM 35.6 °F 28.0 °F 24.8 °F 65% 29.47 in 10.0 mi WSW 10.4 mph - N/A   Clear
1:55 AM 35.6 °F 28.0 °F 24.8 °F 65% 29.48 in 10.0 mi WSW 10.4 mph - N/A   Clear
2:15 AM 33.8 °F 28.6 °F 24.8 °F 70% 29.49 in 10.0 mi West 5.8 mph - N/A   Scattered Clouds
2:35 AM 33.8 °F 29.6 °F 24.8 °F 70% 29.49 in 10.0 mi West 4.6 mph - N/A   Scattered Clouds
2:55 AM 32.0 °F 24.2 °F 24.8 °F 75% 29.49 in 10.0 mi WSW 9.2 mph - N/A   Clear
3:15 AM 32.0 °F 24.8 °F 24.8 °F 75% 29.51 in 10.0 mi West 8.1 mph - N/A   Clear
3:35 AM 32.0 °F 24.2 °F 24.8 °F 75% 29.51 in 10.0 mi West 9.2 mph - N/A   Clear
3:55 AM 32.0 °F 24.2 °F 24.8 °F 75% 29.52 in 10.0 mi WNW 9.2 mph - N/A   Clear
4:15 AM 32.0 °F 24.8 °F 23.0 °F 69% 29.53 in 10.0 mi WNW 8.1 mph - N/A   Clear
4:35 AM 32.0 °F 25.6 °F 23.0 °F 69% 29.54 in 10.0 mi WNW 6.9 mph - N/A   Clear
4:55 AM 32.0 °F 24.8 °F 24.8 °F 75% 29.55 in 10.0 mi WNW 8.1 mph - N/A   Clear
5:15 AM 32.0 °F 25.6 °F 24.8 °F 75% 29.55 in 10.0 mi WNW 6.9 mph - N/A   Clear
5:35 AM 30.2 °F 23.4 °F 23.0 °F 75% 29.55 in 10.0 mi WNW 6.9 mph - N/A   Clear
6:15 AM 28.4 °F 22.2 °F 23.0 °F 80% 29.57 in 10.0 mi WSW 5.8 mph - N/A   Clear
6:35 AM 30.2 °F 25.4 °F 23.0 °F 75% 29.57 in 10.0 mi WSW 4.6 mph - N/A   Clear
6:55 AM 30.2 °F 22.6 °F 23.0 °F 75% 29.58 in 10.0 mi WSW 8.1 mph - N/A   Clear
7:15 AM 30.2 °F 21.9 °F 23.0 °F 75% 29.59 in 10.0 mi WSW 9.2 mph - N/A   Clear
7:35 AM 30.2 °F 24.3 °F 24.8 °F 80% 29.61 in 10.0 mi West 5.8 mph - N/A   Clear
7:55 AM 32.0 °F 27.5 °F 24.8 °F 75% 29.61 in 10.0 mi West 4.6 mph - N/A   Scattered Clouds
8:15 AM 33.8 °F 27.0 °F 26.6 °F 75% 29.61 in 10.0 mi WSW 8.1 mph - N/A   Mostly Cloudy
8:35 AM 35.6 °F 28.0 °F 26.6 °F 70% 29.61 in 10.0 mi WSW 10.4 mph - N/A   Overcast
8:55 AM 35.6 °F 27.5 °F 26.6 °F 70% 29.61 in 10.0 mi WSW 11.5 mph - N/A   Scattered Clouds
9:15 AM 37.4 °F 30.3 °F 26.6 °F 65% 29.62 in 10.0 mi West 10.4 mph - N/A   Clear
9:35 AM 41.0 °F 34.7 °F 26.6 °F 57% 29.61 in 10.0 mi West 10.4 mph - N/A   Clear
9:55 AM 42.8 °F 36.6 °F 26.6 °F 53% 29.61 in 10.0 mi West 11.5 mph - N/A   Clear
10:15 AM 44.6 °F 38.8 °F 26.6 °F 49% 29.60 in 10.0 mi West 11.5 mph - N/A   Clear
10:35 AM 46.4 °F 41.1 °F 24.8 °F 43% 29.61 in 10.0 mi West 11.5 mph - N/A   Clear
10:55 AM 46.4 °F 40.7 °F 23.0 °F 40% 29.61 in 10.0 mi West 12.7 mph - N/A   Clear
11:15 AM 48.2 °F - 21.2 °F 34% 29.61 in 10.0 mi West 10.4 mph - N/A   Clear
11:35 AM 50.0 °F - 21.2 °F 32% 29.62 in 10.0 mi WSW 12.7 mph 17.3 mph N/A   Clear
11:55 AM 50.0 °F - 23.0 °F 35% 29.62 in 10.0 mi SW 13.8 mph 20.7 mph N/A   Clear
12:15 PM 51.8 °F - 23.0 °F 33% 29.61 in 10.0 mi SW 17.3 mph 24.2 mph N/A   Clear
12:35 PM 51.8 °F - 23.0 °F 33% 29.60 in 10.0 mi SW 15.0 mph 25.3 mph N/A   Clear
12:55 PM 51.8 °F - 23.0 °F 33% 29.59 in 10.0 mi SW 17.3 mph 23.0 mph N/A   Clear
1:15 PM 51.8 °F - 23.0 °F 33% 29.57 in 10.0 mi SW 18.4 mph 24.2 mph N/A   Clear
1:35 PM 53.6 °F - 21.2 °F 28% 29.57 in 10.0 mi SW 15.0 mph 21.9 mph N/A   Clear
1:55 PM 53.6 °F - 19.4 °F 26% 29.55 in 10.0 mi WSW 17.3 mph 24.2 mph N/A   Clear
2:15 PM 53.6 °F - 19.4 °F 26% 29.55 in 10.0 mi SW 16.1 mph 21.9 mph N/A   Clear
2:35 PM 53.6 °F - 14.0 °F 21% 29.55 in 10.0 mi WSW 16.1 mph 25.3 mph N/A   Clear
2:55 PM 55.4 °F - 14.0 °F 20% 29.54 in 10.0 mi WSW 15.0 mph - N/A   Clear
3:15 PM 53.6 °F - 12.2 °F 19% 29.53 in 10.0 mi West 18.4 mph 25.3 mph N/A   Clear
3:35 PM 53.6 °F - 12.2 °F 19% 29.53 in 10.0 mi WSW 17.3 mph 21.9 mph N/A   Clear
3:55 PM 53.6 °F - 12.2 °F 19% 29.53 in 10.0 mi West 12.7 mph - N/A   Clear
4:15 PM 53.6 °F - 14.0 °F 21% 29.53 in 10.0 mi West 11.5 mph - N/A   Clear
4:35 PM 50.0 °F - 15.8 °F 26% 29.52 in 10.0 mi West 4.6 mph - N/A   Clear
4:55 PM 48.2 °F - 15.8 °F 27% 29.52 in 10.0 mi Calm Calm - N/A   Scattered Clouds
5:15 PM 44.6 °F - 17.6 °F 34% 29.52 in 10.0 mi Calm Calm - N/A   Scattered Clouds
5:35 PM 44.6 °F - 17.6 °F 34% 29.52 in 10.0 mi Calm Calm - N/A   Clear
5:55 PM 42.8 °F - 17.6 °F 36% 29.52 in 10.0 mi Calm Calm - N/A   Clear
6:15 PM 41.0 °F - 17.6 °F 39% 29.52 in 10.0 mi Calm Calm - N/A   Clear
6:35 PM 35.6 °F 31.7 °F 19.4 °F 52% 29.52 in 10.0 mi SE 4.6 mph - N/A   Scattered Clouds
6:55 PM 32.0 °F - 19.4 °F 60% 29.52 in 10.0 mi Calm Calm - N/A   Scattered Clouds
7:15 PM 33.8 °F 30.8 °F 21.2 °F 60% 29.53 in 10.0 mi SE 3.5 mph - N/A   Clear
7:35 PM 33.8 °F 28.6 °F 21.2 °F 60% 29.53 in 10.0 mi SSE 5.8 mph - N/A   Clear
7:55 PM 33.8 °F 29.6 °F 21.2 °F 60% 29.53 in 10.0 mi South 4.6 mph - N/A   Scattered Clouds
8:15 PM 33.8 °F 30.8 °F 21.2 °F 60% 29.53 in 10.0 mi SSE 3.5 mph - N/A   Clear
8:35 PM 35.6 °F 32.8 °F 19.4 °F 52% 29.54 in 10.0 mi WSW 3.5 mph - N/A   Mostly Cloudy
8:55 PM 33.8 °F - 21.2 °F 60% 29.54 in 10.0 mi Calm Calm - N/A   Mostly Cloudy
9:15 PM 32.0 °F 25.6 °F 21.2 °F 64% 29.52 in 10.0 mi SSE 6.9 mph - N/A   Clear
9:35 PM 32.0 °F 28.7 °F 21.2 °F 64% 29.51 in 10.0 mi South 3.5 mph - N/A   Clear
9:55 PM 33.8 °F - 19.4 °F 56% 29.52 in 10.0 mi Calm Calm - N/A   Clear
10:15 PM 32.0 °F - 19.4 °F 60% 29.53 in 10.0 mi Calm Calm - N/A   Clear
10:35 PM 32.0 °F 27.5 °F 19.4 °F 60% 29.54 in 10.0 mi West 4.6 mph - N/A   Clear
10:55 PM 32.0 °F 26.4 °F 19.4 °F 60% 29.55 in 10.0 mi West 5.8 mph - N/A   Clear
11:15 PM 32.0 °F - 19.4 °F 60% 29.55 in 10.0 mi Calm Calm - N/A   Clear
11:35 PM 32.0 °F 26.4 °F 19.4 °F 60% 29.57 in 10.0 mi WSW 5.8 mph - N/A   Clear
11:55 PM 30.2 °F - 19.4 °F 64% 29.55 in 10.0 mi Calm Calm - N/A   Clear